Location: Newark
(40.1500°N, 18.0667°E)
Time: 22:31:27
(UTC+00:00)

ISS - Visible Passes

Search period start: 19 February 2020 00:00
Search period end: 29 February 2020 00:00
Orbit: 416 x 422 km, 51.6° (Epoch: 20 February)

Date Brightness Start Highest point End Pass type
(mag) Time Alt. Az. Time Alt. Az. Time Alt. Az.
19 Feb -0.8 04:53:39 10° S 04:55:57 17° SE 04:58:15 10° E visible
21 Feb -2.9 04:53:57 10° SW 04:57:14 52° SE 05:00:32 10° ENE visible
22 Feb -1.9 04:06:48 10° SSW 04:09:42 29° SE 04:12:40 10° ENE visible
23 Feb -1.2 03:21:51 17° SE 03:22:12 17° SE 03:24:29 10° E visible
23 Feb -3.5 04:55:25 10° WSW 04:58:42 52° NNW 05:02:01 10° NE visible
24 Feb -3.8 04:09:39 33° SW 04:11:01 89° NW 04:14:25 10° NE visible
25 Feb -2.3 03:24:16 38° E 03:24:16 38° E 03:26:41 10° ENE visible
25 Feb -2.3 04:57:32 10° W 05:00:22 24° NNW 05:03:12 10° NNE visible
26 Feb -0.1 02:38:46 10° ENE 02:38:46 10° ENE 02:38:47 10° ENE visible
26 Feb -2.9 04:11:44 29° WNW 04:12:33 34° NNW 04:15:41 10° NE visible
27 Feb -2.2 03:26:06 31° NNE 03:26:06 31° NNE 03:28:06 10° NE visible
28 Feb -0.2 02:40:22 10° NE 02:40:22 10° NE 02:40:26 10° NE visible
28 Feb -1.9 04:13:19 17° NW 04:14:15 19° NNW 04:16:43 10° NNE visible
